When you browse on this site, cookies collect data to enhance your experience and personalize the content and advertising you see.
Visit our Privacy Policy to learn more. By continuing to use the site, you agree to this use of cookies and data.
  • In Österreich
  • Länderverzeichnis
  • Für 7 Tage
  • Wassertemperatur
  • Wetterkarte
  • News
  • Widgets
  • user-avatar
    Anmelden

    Stündliche Wetter Zastavlya

    Heute, 17 August, Samstag

    Zeit Temperatur Niederschläge Wind Luftdruck Luftfeuchtigkeit
    00:00 +14°C° 0 mm 2 m/S 734 mmHg 83%
    01:00 +13°C° 0 mm 2 m/S 734 mmHg 84%
    02:00 +13°C° 0 mm 2 m/S 734 mmHg 87%
    03:00 +12°C° 0 mm 2 m/S 734 mmHg 88%
    04:00 +12°C° 0 mm 2 m/S 734 mmHg 89%
    05:00 +12°C° 0 mm 2 m/S 734 mmHg 90%
    06:00 +12°C° 0 mm 3 m/S 734 mmHg 85%
    07:00 +14°C° 0 mm 3 m/S 734 mmHg 81%
    08:00 +17°C° 0 mm 3 m/S 735 mmHg 76%
    09:00 +18°C° 0.1 mm 3 m/S 735 mmHg 69%
    10:00 +20°C° 0.1 mm 3 m/S 735 mmHg 63%
    11:00 +21°C° 0.1 mm 3 m/S 735 mmHg 56%
    12:00 +22°C° 0.1 mm 4 m/S 734 mmHg 54%
    13:00 +22°C° 0.1 mm 4 m/S 734 mmHg 52%
    14:00 +23°C° 0.1 mm 4 m/S 734 mmHg 50%
    15:00 +23°C° 0 mm 4 m/S 734 mmHg 52%
    16:00 +22°C° 0 mm 4 m/S 734 mmHg 54%
    17:00 +22°C° 0 mm 4 m/S 734 mmHg 56%
    18:00 +20°C° 0 mm 3 m/S 734 mmHg 63%
    19:00 +19°C° 0 mm 2 m/S 734 mmHg 70%
    20:00 +17°C° 0 mm 2 m/S 734 mmHg 78%
    21:00 +16°C° 0 mm 2 m/S 734 mmHg 81%
    22:00 +16°C° 0 mm 2 m/S 734 mmHg 83%
    23:00 +15°C° 0 mm 2 m/S 734 mmHg 86%

    Morgen, 18 August, Sonntag

    Zeit Temperatur Niederschläge Wind Luftdruck Luftfeuchtigkeit
    00:00 +15°C° 0 mm 2 m/S 734 mmHg 87%
    01:00 +14°C° 0 mm 2 m/S 734 mmHg 88%
    02:00 +14°C° 0 mm 2 m/S 734 mmHg 89%
    03:00 +14°C° 0 mm 2 m/S 734 mmHg 89%
    04:00 +14°C° 0 mm 1 m/S 734 mmHg 89%
    05:00 +13°C° 0 mm 1 m/S 734 mmHg 90%
    06:00 +15°C° 0 mm 1 m/S 734 mmHg 83%
    07:00 +18°C° 0 mm 1 m/S 734 mmHg 77%
    08:00 +18°C° 0 mm 2 m/S 735 mmHg 70%
    09:00 +20°C° 0 mm 2 m/S 735 mmHg 64%
    10:00 +21°C° 0 mm 2 m/S 735 mmHg 58%
    11:00 +24°C° 0 mm 2 m/S 735 mmHg 52%
    12:00 +24°C° 0 mm 2 m/S 735 mmHg 49%
    13:00 +25°C° 0 mm 2 m/S 735 mmHg 46%
    14:00 +26°C° 0 mm 2 m/S 735 mmHg 44%
    15:00 +26°C° 0 mm 2 m/S 735 mmHg 44%
    16:00 +26°C° 0 mm 2 m/S 735 mmHg 45%
    17:00 +26°C° 0 mm 1 m/S 735 mmHg 46%
    18:00 +24°C° 0 mm 2 m/S 735 mmHg 51%
    19:00 +21°C° 0 mm 2 m/S 735 mmHg 56%
    20:00 +19°C° 0 mm 2 m/S 735 mmHg 61%
    21:00 +19°C° 0 mm 2 m/S 736 mmHg 63%
    22:00 +18°C° 0 mm 2 m/S 736 mmHg 64%
    23:00 +18°C° 0 mm 2 m/S 736 mmHg 65%

    übermorgen, 19 August, Montag

    Zeit Temperatur Niederschläge Wind Luftdruck Luftfeuchtigkeit
    00:00 +17°C° 0 mm 2 m/S 736 mmHg 66%
    01:00 +17°C° 0 mm 2 m/S 736 mmHg 67%
    02:00 +17°C° 0 mm 2 m/S 736 mmHg 68%
    03:00 +16°C° 0 mm 2 m/S 736 mmHg 69%
    04:00 +16°C° 0 mm 2 m/S 736 mmHg 70%
    05:00 +16°C° 0 mm 2 m/S 736 mmHg 71%
    06:00 +17°C° 0 mm 2 m/S 736 mmHg 67%
    07:00 +19°C° 0 mm 2 m/S 737 mmHg 64%
    08:00 +20°C° 0 mm 3 m/S 737 mmHg 60%
    09:00 +22°C° 0 mm 3 m/S 737 mmHg 56%
    10:00 +25°C° 0 mm 3 m/S 737 mmHg 51%
    11:00 +27°C° 0 mm 3 m/S 737 mmHg 47%
    12:00 +27°C° 0 mm 2 m/S 737 mmHg 45%
    13:00 +28°C° 0 mm 2 m/S 737 mmHg 43%
    14:00 +29°C° 0 mm 2 m/S 737 mmHg 42%
    15:00 +29°C° 0 mm 2 m/S 737 mmHg 43%
    16:00 +29°C° 0 mm 1 m/S 737 mmHg 44%
    17:00 +29°C° 0 mm 1 m/S 737 mmHg 44%
    18:00 +27°C° 0 mm 1 m/S 737 mmHg 49%
    19:00 +25°C° 0 mm 1 m/S 737 mmHg 53%
    20:00 +23°C° 0 mm 2 m/S 737 mmHg 58%
    21:00 +21°C° 0 mm 2 m/S 737 mmHg 58%
    22:00 +21°C° 0 mm 2 m/S 738 mmHg 58%
    23:00 +20°C° 0 mm 2 m/S 738 mmHg 59%

    20 August, Dienstag

    Zeit Temperatur Niederschläge Wind Luftdruck Luftfeuchtigkeit
    00:00 +19°C° 0 mm 2 m/S 738 mmHg 57%
    01:00 +19°C° 0 mm 2 m/S 738 mmHg 56%
    02:00 +18°C° 0 mm 2 m/S 737 mmHg 55%
    03:00 +18°C° 0 mm 2 m/S 737 mmHg 55%
    04:00 +18°C° 0 mm 2 m/S 737 mmHg 56%
    05:00 +17°C° 0 mm 2 m/S 737 mmHg 56%
    06:00 +19°C° 0 mm 2 m/S 738 mmHg 55%
    07:00 +20°C° 0 mm 2 m/S 738 mmHg 54%
    08:00 +23°C° 0 mm 2 m/S 738 mmHg 53%
    09:00 +25°C° 0 mm 2 m/S 739 mmHg 48%
    10:00 +27°C° 0 mm 2 m/S 739 mmHg 44%
    11:00 +28°C° 0 mm 2 m/S 739 mmHg 40%
    12:00 +29°C° 0 mm 2 m/S 739 mmHg 38%
    13:00 +30°C° 0 mm 2 m/S 738 mmHg 37%
    14:00 +30°C° 0 mm 1 m/S 738 mmHg 36%
    15:00 +30°C° 0 mm 1 m/S 738 mmHg 37%
    16:00 +30°C° 0 mm 1 m/S 738 mmHg 38%
    17:00 +30°C° 0 mm 1 m/S 738 mmHg 39%
    18:00 +28°C° 0 mm 2 m/S 738 mmHg 44%
    19:00 +26°C° 0 mm 2 m/S 738 mmHg 49%
    20:00 +24°C° 0 mm 2 m/S 738 mmHg 54%
    21:00 +23°C° 0 mm 2 m/S 738 mmHg 55%
    22:00 +21°C° 0 mm 3 m/S 738 mmHg 56%
    23:00 +21°C° 0 mm 3 m/S 738 mmHg 57%

    21 August, Mittwoch

    Zeit Temperatur Niederschläge Wind Luftdruck Luftfeuchtigkeit
    00:00 +20°C° 0 mm 3 m/S 738 mmHg 58%
    01:00 +19°C° 0 mm 3 m/S 738 mmHg 60%
    02:00 +19°C° 0 mm 3 m/S 738 mmHg 61%
    03:00 +18°C° 0 mm 3 m/S 737 mmHg 62%
    04:00 +18°C° 0 mm 2 m/S 737 mmHg 64%
    05:00 +18°C° 0 mm 2 m/S 737 mmHg 66%
    06:00 +19°C° 0 mm 2 m/S 737 mmHg 64%
    07:00 +21°C° 0 mm 3 m/S 737 mmHg 61%
    08:00 +24°C° 0 mm 3 m/S 737 mmHg 59%
    09:00 +25°C° 0 mm 3 m/S 737 mmHg 54%
    10:00 +27°C° 0 mm 3 m/S 737 mmHg 49%
    11:00 +29°C° 0 mm 3 m/S 737 mmHg 44%
    12:00 +30°C° 0 mm 2 m/S 737 mmHg 41%
    13:00 +31°C° 0 mm 2 m/S 737 mmHg 38%
    14:00 +32°C° 0 mm 1 m/S 737 mmHg 36%
    15:00 +31°C° 0 mm 2 m/S 737 mmHg 39%
    16:00 +31°C° 0 mm 3 m/S 737 mmHg 42%
    17:00 +32°C° 0 mm 4 m/S 737 mmHg 45%
    18:00 +28°C° 0 mm 5 m/S 737 mmHg 55%
    19:00 +24°C° 0 mm 6 m/S 738 mmHg 64%
    20:00 +22°C° 0 mm 7 m/S 738 mmHg 73%
    21:00 +20°C° 0 mm 7 m/S 739 mmHg 74%
    22:00 +18°C° 0 mm 7 m/S 739 mmHg 75%
    23:00 +16°C° 0 mm 6 m/S 740 mmHg 76%

    22 August, Donnerstag

    Zeit Temperatur Niederschläge Wind Luftdruck Luftfeuchtigkeit
    00:00 +16°C° 0 mm 6 m/S 740 mmHg 78%
    01:00 +15°C° 0 mm 6 m/S 740 mmHg 80%
    02:00 +14°C° 0 mm 6 m/S 740 mmHg 81%
    03:00 +14°C° 0 mm 5 m/S 740 mmHg 82%
    04:00 +13°C° 0 mm 5 m/S 740 mmHg 83%
    05:00 +13°C° 0 mm 5 m/S 740 mmHg 84%
    06:00 +14°C° 0 mm 5 m/S 740 mmHg 82%
    07:00 +14°C° 0 mm 6 m/S 741 mmHg 79%
    08:00 +15°C° 0 mm 6 m/S 741 mmHg 77%
    09:00 +16°C° 0 mm 6 m/S 741 mmHg 72%
    10:00 +17°C° 0 mm 6 m/S 741 mmHg 67%
    11:00 +20°C° 0 mm 6 m/S 741 mmHg 62%
    12:00 +21°C° 0 mm 6 m/S 741 mmHg 59%
    13:00 +22°C° 0 mm 6 m/S 741 mmHg 55%
    14:00 +23°C° 0 mm 6 m/S 741 mmHg 51%
    15:00 +23°C° 0 mm 6 m/S 741 mmHg 51%
    16:00 +23°C° 0 mm 6 m/S 741 mmHg 51%
    17:00 +23°C° 0 mm 6 m/S 741 mmHg 52%
    18:00 +21°C° 0 mm 5 m/S 741 mmHg 58%
    19:00 +19°C° 0 mm 4 m/S 741 mmHg 65%
    20:00 +17°C° 0 mm 4 m/S 741 mmHg 71%
    21:00 +15°C° 0 mm 4 m/S 741 mmHg 74%
    22:00 +15°C° 0 mm 4 m/S 741 mmHg 77%
    23:00 +14°C° 0 mm 3 m/S 741 mmHg 79%
    Mehr zeigen